CZ-6A DEB, 56671

Orbit data source: Space-Track

CZ-6A DEB, 56671 is space debris in SSO originally from a launch on Fri, 11 Nov 2022 UTC launched from the Taiyaun Space Center, China (TSC). Debris objects in space refer to the collection of defunct objects orbiting the Earth. Examples of debris include non-operational satellites, rocket bodies, and fragments generated from explosions, collisions, or faulty payload assembly.

Loading next visibility...
Identifier
56671, 2022-151AGX
Orbit
SSO
Country
Flag of CNCN / PRC
Related business
Manufacturer
SAST
Mission
Spacecraft
Bus & Motor
Unknown
Mass
Unknown
Launch date (UTC)
2022-11-11 (3 years ago)
Launch vehicle
Unknown
Launch site
Taiyaun Space Center, China (TSC)
Object type
Payload
Rocket body
Debris
Shape & HBR
Unknown shape, 0.1 m
Radar Cross Section
Small (<0.1 m²)

Expand to show TLE details & history
Last TLE update: 2 weeks ago

TLE from 2 weeks ago
0 CZ-6A DEB
1 56671U 22151AGX 25339.16110114  .00001276  00000-0  93063-3 0  9993
2 56671  98.9029 311.6494 0121515 253.7751 105.0012 13.94458060133249
Epoch: 2025-12-05T03:51Z
TLE epoch observation values (Epoch: 2025-12-05T03:51:59.138Z)
Latitude
-0.00008°
Longitude
179.44584°
Altitude
939.86 km
Speed
7.37 km/s
True Right ascension
20h 46m 35s
True Declination
0° 00' 00"
Sunlit
Object was in daylight at epoch
Visualization orbit readout
Latitude
Unknown
Longitude
Unknown
Altitude
Unknown
Speed
Unknown
Apparent Right ascension
Unknown
Apparent Declination
Unknown
Sunlit
N/A
Visualization observer readout
Local Sidereal Time
23:45:24
Azimuth
Unknown
Elevation
Unknown
Doppler factor
Unknown
Orbital elements
Apogee altitude
998.816 km
Perigee altitude
821.686 km
Semi-major axis
7,288.388 km
Eccentricity
0.01215
Inclination
98.9029°
RAAN
311.6494°
Arg. of periapsis
253.7751°
True anomaly
106.34081°
Mean anomaly
105.0012°
Eccentric anomaly
105.67155°
Mean motion
3.48816 °/min
Orbital period
103.21 mins
BSTAR
0.00093063
Loading maneuver chart data...
Computing Atmospheric mass density...
Loading historical data...
Loading historical data...
Loading historical data...
Loading historical data...
Loading historical data...
Loading historical data...
Loading historical data...

Documentation

Showing up to 5 results
|